CAPE
1669 1184 1984 1678 1546 1547 1821 1644 1694 1788 1788 1466 1555 1305 1412 1378 1123 1460 1502 1016 641 298 472 142 192 209 252 282 408 560 720 763 792 783 907 1157 1101 1009 1020 1092 1333 1332 1617
1679 1608 1771 1719 1395 1642 1899 1713 1619 1852 1877 1857 1241 1588 1540 1281 551 528 1056 880 472 304 303 156 154 154 218 184 130 111 253 425 560 530 458 726 859 932 996 1028 1107 1547 1549
1469 1301 1129 1814 1928 1663 1533 1326 1591 1502 1648 1723 1564 1495 1595 1319 611 456 407 375 495 355 325 272 236 236 231 155 114 129 73 70 267 469 352 510 458 738 664 1024 1277 1301 1552
1316 786 1063 1425 1837 1817 1618 1604 1591 1428 1512 1516 1371 1256 1515 1396 764 1069 1257 965 595 561 382 277 217 233 181 124 95 444 342 42 74 66 383 433 381 694 648 862 959 1081 1499
934 880 846 1263 1123 1347 1453 1395 1267 1440 1364 1489 1333 1554 1626 1370 1015 740 1207 1156 679 408 229 170 138 142 138 74 108 352 318 54 39 83 110 338 421 608 549 814 802 881 979
825 778 1183 1398 1223 1117 939 705 898 1078 1040 1427 1238 1432 1494 1408 1394 1018 1041 950 651 384 211 123 86 92 77 41 39 65 27 22 154 107 27 39 323 371 559 630 715 769 1087
863 879 564 312 823 991 1152 942 670 865 904 807 866 1048 849 1259 1244 1124 1158 965 867 642 440 288 183 134 74 14 0 0 0 0 2 1 0 71 206 312 618 420 601 855 865
714 882 219 142 501 828 857 936 1002 656 647 638 643 570 927 1327 1478 1409 1189 1008 910 693 562 471 378 319 251 85 0 0 0 0 0 0 0 0 418 144 758 343 368 370 470
490 327 105 66 112 190 361 566 510 589 672 691 787 1338 1303 1203 1400 1397 1307 1125 899 839 727 633 447 314 355 387 160 3 0 0 0 0 0 0 226 28 333 580 386 300 280
280 113 58 99 49 370 273 117 243 347 493 808 919 1017 874 1047 1101 1140 1066 1185 1014 917 888 802 745 628 527 396 353 144 0 0 0 0 0 0 4 34 53 274 321 476 584
83 162 212 201 65 205 326 220 164 136 163 358 421 436 653 928 852 761 666 627 991 1023 880 784 750 670 539 413 343 236 87 76 2 3 0 0 0 177 33 0 259 227 251
45 17 49 62 61 165 209 389 262 113 217 291 523 404 699 338 349 603 317 330 374 448 574 643 467 318 322 486 483 159 461 358 287 45 8 47 47 123 163 83 74 134 353
35 17 49 34 7 14 134 127 110 130 205 97 112 294 429 155 173 192 268 185 192 172 241 289 573 632 585 509 527 543 502 438 397 426 289 106 215 116 341 269 195 185 302
35 16 10 4 0 0 0 5 67 62 58 95 143 148 197 159 137 167 123 64 59 43 86 100 101 91 87 68 29 69 127 347 433 433 353 163 93 60 256 310 323 324 281
0 0 0 0 0 0 0 0 0 1 3 44 82 170 182 217 200 224 174 121 71 23 3 1 0 0 0 0 0 0 0 0 9 29 176 175 208 90 157 246 270 305 215
0 0 0 0 0 0 0 0 0 1 9 28 52 40 123 251 242 163 63 29 21 24 0 0 0 0 0 0 0 0 0 0 0 0 0 8 151 248 215 142 193 185 234
0 0 0 0 0 0 0 0 0 0 0 0 0 4 7 27 84 14 5 1 0 0 0 0 0 0 0 0 0 0 0 0 0 0 0 0 0 7 168 299 277 212 145
0 0 0 0 0 0 0 0 0 0 0 0 0 0 0 0 0 0 0 0 0 0 0 0 0 0 0 0 0 0 0 0 0 0 0 0 0 0 0 0 0 33 11
0 0 0 0 0 0 0 0 0 0 0 0 0 0 0 0 0 0 0 0 0 0 0 0 0 0 0 0 0 0 0 0 0 0 0 0 0 0 0 0 0 0 0
0 0 0 0 0 0 0 0 0 0 0 0 0 0 0 0 0 0 0 0 0 0 0 0 0 0 0 0 0 0 0 0 0 0 0 0 0 0 0 0 0 0 0
0 0 0 0 0 0 0 0 0 0 0 0 0 0 0 0 0 0 0 0 0 0 0 0 0 0 0 0 0 0 0 0 0 0 0 0 1 1 1 3 1 1 1
0 0 0 0 0 0 0 0 0 0 0 0 0 0 0 0 0 0 0 0 0 0 0 0 0 0 0 0 0 0 0 0 0 0 0 0 0 0 0 0 0 0 0
0 0 0 0 0 0 0 0 0 0 0 0 0 0 0 0 0 0 0 0 0 0 0 0 0 0 0 0 0 0 0 0 0 0 0 0 0 0 0 0 0 0 0
0 0 0 0 0 0 0 0 0 0 0 0 0 0 0 0 0 0 0 0 0 0 0 0 0 0 0 0 0 0 0 0 0 0 0 0 0 0 0 0 0 0 0
0 0 0 0 0 0 0 0 0 0 0 0 0 0 0 0 0 0 0 0 0 0 0 0 0 0 0 0 0 0 0 0 0 0 0 0 0 0 0 0 0 0 0
0 0 0 0 0 0 0 0 0 0 0 0 0 0 0 0 0 0 0 0 0 0 0 0 0 0 0 0 0 0 0 0 0 0 0 0 0 0 0 0 0 0 1
CIN
-0 -9 -3 -5 -5 -5 -1 -2 -1 -0 -0 -0 -0 -0 -0 -0 -0 -0 -0 -0 -0 -12 -1 -55 -30 -17 -10 -7 -1 -0 -0 -0 -1 -5 -5 -2 -0 -0 -0 -2 -4 -0 -0
-0 -0 -11 -2 -9 -3 -1 -1 -4 -0 -0 -0 -0 -0 -0 -0 -8 -6 -0 -0 -3 -19 -7 -28 -38 -29 -9 -18 -40 -55 -20 -11 -11 -19 -22 -18 -6 -2 -3 -5 -6 -0 -0
-0 -3 -5 -7 -2 -2 -1 -9 -3 -2 -1 -0 -0 -1 -0 -0 -13 -27 -25 -11 -0 -14 -15 -11 -12 -7 -3 -15 -41 -44 -73 -83 -29 -22 -27 -0 -0 -1 -5 -5 -4 -8 -0
-4 -28 -8 -8 -1 -1 -3 -1 -2 -4 -2 -1 -3 -5 -1 -0 -0 -0 -0 -0 -0 -0 -9 -18 -17 -3 -6 -20 -40 -6 -16 -102 -92 -107 -1 -0 -0 -2 -4 -3 -3 -5 -1
-19 -19 -27 -17 -9 -3 -5 -6 -7 -5 -6 -4 -5 -1 -0 -0 -0 -0 -0 -0 -0 -11 -27 -32 -40 -30 -21 -44 -24 -11 -20 -81 -81 -38 -31 -0 -0 -1 -8 -3 -3 -6 -6
-24 -23 -17 -15 -30 -37 -36 -26 -7 -8 -12 -5 -7 -2 -2 -1 -0 -0 -0 -0 -0 -6 -43 -75 -76 -54 -48 -82 -88 -48 -89 -102 -25 -12 -64 -72 -0 -8 -3 -5 -8 -8 -2
-9 -15 -46 -58 -40 -23 -51 -58 -37 -3 -7 -15 -12 -5 -8 -2 -0 -0 -2 -0 -0 -0 -0 -11 -39 -45 -69 -115 -8 -0 -0 -0 -0 -0 -0 -12 -1 -8 -0 -6 -1 -0 -0
-14 -8 -55 -44 -51 -29 -25 -13 -50 -27 -10 -20 -11 -12 -7 -0 -0 -0 -1 -1 -1 -0 -0 -0 -0 -4 -11 -62 -0 -0 -0 -0 -0 -0 -0 -0 -8 -15 -0 -2 -2 -2 -0
-45 -59 -90 -126 -100 -80 -46 -30 -56 -47 -16 -11 -12 -6 -6 -2 -1 -0 -1 -0 -1 -1 -2 -0 -1 -4 -2 -0 -38 -94 -0 -0 -0 -0 -0 -0 -15 -49 -0 -0 -0 -0 -1
-57 -88 -118 -97 -147 -18 -38 -82 -58 -34 -13 -16 -11 -17 -18 -10 -9 -3 -6 -1 -0 -1 -4 -1 -1 -2 -0 -1 -3 -55 -4 -0 -0 -0 -0 -0 -1 -21 -11 -2 -2 -1 -0
-81 -69 -47 -63 -120 -70 -24 -36 -14 -23 -28 -46 -28 -49 -26 -4 -2 -2 -7 -12 -1 -0 -1 -0 -0 -0 -4 -9 -10 -32 -98 -44 -35 -6 -0 -0 -0 -4 -27 -0 -3 -5 -4
-233 -262 -141 -76 -57 -41 -47 -5 -8 -20 -18 -46 -18 -50 -16 -10 -15 -5 -39 -36 -35 -21 -11 -4 -14 -25 -16 -0 -0 -37 -0 -0 -0 -53 -18 -81 -52 -15 -3 -15 -25 -11 -2
-222 -231 -115 -79 -85 -50 -40 -54 -31 -51 -33 -73 -55 -44 -18 -22 -15 -24 -25 -37 -40 -34 -27 -12 -3 -0 -0 -0 -0 -0 -0 -0 -0 -0 -5 -70 -24 -23 -2 -3 -8 -11 -4
-299 -287 -192 -163 -0 -0 -0 -22 -17 -17 -41 -49 -34 -39 -28 -14 -20 -18 -31 -35 -37 -32 -46 -29 -28 -31 -21 -26 -36 -37 -24 -0 -0 -0 -1 -23 -32 -54 -7 -1 -3 -3 -2
-0 -0 -0 -0 -0 -0 -0 -0 -0 -0 -62 -34 -17 -2 -2 -6 -9 -9 -19 -16 -26 -45 -14 -44 -0 -0 -0 -0 -0 -0 -0 -0 -84 -36 -7 -21 -5 -23 -19 -6 -3 -1 -0
-0 -0 -0 -0 -0 -0 -0 -0 -0 -1 -60 -27 -12 -24 -14 -0 -0 -0 -6 -31 -42 -40 -7 -0 -0 -0 -0 -0 -0 -0 -0 -0 -0 -0 -0 -102 -8 -0 -1 -12 -5 -2 -3
-0 -0 -0 -0 -0 -0 -0 -0 -0 -0 -0 -0 -3 -33 -26 -10 -1 -23 -0 -8 -0 -0 -0 -0 -0 -0 -0 -0 -0 -0 -0 -0 -0 -0 -0 -0 -0 -107 -1 -0 -2 -0 -7
-0 -0 -0 -0 -0 -0 -0 -0 -0 -0 -0 -0 -0 -0 -0 -0 -0 -0 -0 -0 -0 -0 -0 -0 -0 -0 -0 -0 -0 -0 -0 -0 -0 -0 -0 -0 -0 -0 -0 -0 -0 -25 -48
-0 -0 -0 -0 -0 -0 -0 -0 -0 -0 -0 -0 -0 -0 -0 -0 -0 -0 -0 -0 -0 -0 -0 -0 -0 -0 -0 -0 -0 -0 -0 -0 -0 -0 -0 -0 -0 -0 -0 -0 -0 -0 -0
-0 -0 -0 -0 -0 -0 -0 -0 -0 -0 -0 -0 -0 -0 -0 -0 -0 -0 -0 -0 -0 -0 -0 -0 -0 -0 -0 -0 -0 -0 -0 -0 -0 -0 -0 -0 -0 -0 -0 -0 -0 -0 -0
-0 -0 -0 -0 -0 -0 -0 -0 -0 -0 -0 -0 -0 -0 -0 -0 -0 -0 -0 -0 -0 -0 -0 -0 -0 -0 -0 -0 -0 -0 -0 -0 -0 -0 -0 -0 -0 -0 -0 -0 -0 -0 -2
-0 -0 -0 -0 -0 -0 -0 -0 -0 -0 -0 -0 -0 -0 -0 -0 -0 -0 -0 -0 -0 -0 -0 -0 -0 -0 -0 -0 -0 -0 -0 -0 -0 -0 -0 -0 -0 -0 -0 -0 -0 -0 -0
-0 -0 -0 -0 -0 -0 -0 -0 -0 -0 -0 -0 -0 -0 -0 -0 -0 -0 -0 -0 -0 -0 -0 -0 -0 -0 -0 -0 -0 -0 -0 -0 -0 -0 -0 -0 -0 -0 -0 -0 -0 -0 -0
-0 -0 -0 -0 -0 -0 -0 -0 -0 -0 -0 -0 -0 -0 -0 -0 -0 -0 -0 -0 -0 -0 -0 -0 -0 -0 -0 -0 -0 -0 -0 -0 -0 -0 -0 -0 -0 -0 -0 -0 -0 -0 -0
-0 -0 -0 -0 -0 -0 -0 -0 -0 -0 -0 -0 -0 -0 -0 -0 -0 -0 -0 -0 -0 -0 -0 -0 -0 -0 -0 -0 -0 -0 -0 -0 -0 -0 -0 -0 -0 -0 -0 -0 -0 -0 -0
-0 -0 -0 -0 -0 -0 -0 -0 -0 -0 -0 -0 -0 -0 -0 -0 -0 -0 -0 -0 -0 -0 -0 -0 -0 -0 -0 -0 -0 -0 -0 -0 -0 -0 -0 -0 -0 -0 -0 -0 -0 -0 -0
Wind_Speed
21 23 22 22 25 30 31 28 28 26 24 24 23 23 22 23 21 23 21 20 19 18 17 18 17 16 17 19 19 20 20 19 18 18 16 13 12 13 13 12 10 18 19
14 20 25 24 27 30 31 31 30 27 27 24 23 24 26 24 23 23 24 25 22 19 18 19 20 18 17 17 18 18 19 19 19 17 11 15 15 12 12 11 14 18 20
17 23 26 27 33 34 32 32 30 29 27 27 26 25 25 25 24 25 25 26 24 21 21 20 21 21 19 18 17 17 nan nan 18 15 8 15 17 14 14 12 13 16 22
25 30 28 33 33 35 34 32 30 30 27 27 26 25 26 26 26 25 25 25 27 26 24 22 22 22 22 21 nan 20 17 nan nan nan 12 14 16 16 14 13 14 15 23
30 29 28 29 31 29 29 31 31 31 29 27 27 28 27 28 28 28 29 29 28 26 24 24 23 23 24 nan 25 23 21 nan nan nan 16 15 14 17 15 15 15 15 19
29 29 27 24 32 31 33 29 30 35 34 31 29 27 25 28 29 29 29 29 27 25 25 26 nan nan nan nan nan nan nan nan 7 19 nan nan 16 16 17 17 18 19 24
27 27 23 16 23 28 31 42 39 34 35 34 32 30 29 31 29 29 29 29 28 28 28 28 28 29 nan nan nan nan nan nan nan nan nan nan 23 17 17 18 19 20 21
33 25 17 11 14 27 34 38 47 42 40 39 35 36 37 35 29 28 28 28 28 29 29 29 28 30 31 nan nan nan nan nan nan nan nan nan 23 24 20 20 20 19 19
30 27 18 nan 5 12 22 30 36 44 38 34 28 34 39 31 32 31 30 30 30 31 30 30 30 31 32 33 34 nan nan nan nan nan nan nan 26 nan 23 21 20 20 20
29 29 nan nan nan 7 6 13 25 32 32 37 36 37 38 46 38 39 38 37 34 32 32 33 33 31 32 33 33 33 nan nan nan nan nan nan nan nan nan 24 20 20 20
nan 26 26 22 nan 18 8 15 12 9 23 26 33 38 38 37 37 35 42 41 39 39 37 36 36 36 34 32 31 29 nan nan nan nan nan nan nan 27 nan nan 28 23 20
nan nan nan nan nan 19 18 15 12 9 22 33 34 38 40 36 33 39 40 40 40 41 42 42 40 36 24 27 27 26 26 29 30 nan nan nan nan 26 28 nan nan 29 28
nan nan nan nan nan nan 20 16 17 12 17 nan 20 36 27 16 25 25 28 33 35 35 36 37 39 37 32 30 28 25 25 31 31 30 37 35 33 30 25 27 29 29 29
nan nan nan nan nan nan nan nan nan nan nan nan 19 21 24 24 21 21 25 nan nan nan nan 36 35 nan nan nan nan nan 29 31 35 34 36 37 nan nan 24 26 24 27 28
nan nan nan nan nan nan nan nan nan nan nan nan nan 26 26 27 24 27 30 30 nan nan nan nan nan nan nan nan nan nan nan nan nan nan 33 38 37 nan 34 32 29 28 30
nan nan nan nan nan nan nan nan nan nan nan nan nan nan 32 32 32 32 nan nan nan nan nan nan nan nan nan nan nan nan nan nan nan nan nan nan 34 35 34 33 34 33 32
nan nan nan nan nan nan nan nan nan nan nan nan nan nan nan nan nan nan nan nan nan nan nan nan nan nan nan nan nan nan nan nan nan nan nan nan nan nan 36 35 34 33 32
nan nan nan nan nan nan nan nan nan nan nan nan nan nan nan nan nan nan nan nan nan nan nan nan nan nan nan nan nan nan nan nan nan nan nan nan nan nan nan nan nan nan nan
nan nan nan nan nan nan nan nan nan nan nan nan nan nan nan nan nan nan nan nan nan nan nan nan nan nan nan nan nan nan nan nan nan nan nan nan nan nan nan nan nan nan nan
nan nan nan nan nan nan nan nan nan nan nan nan nan nan nan nan nan nan nan nan nan nan nan nan nan nan nan nan nan nan nan nan nan nan nan nan nan nan nan nan nan nan nan
nan nan nan nan nan nan nan nan nan nan nan nan nan nan nan nan nan nan nan nan nan nan nan nan nan nan nan nan nan nan nan nan nan nan nan nan nan nan nan nan nan nan nan
nan nan nan nan nan nan nan nan nan nan nan nan nan nan nan nan nan nan nan nan nan nan nan nan nan nan nan nan nan nan nan nan nan nan nan nan nan nan nan nan nan nan nan
nan nan nan nan nan nan nan nan nan nan nan nan nan nan nan nan nan nan nan nan nan nan nan nan nan nan nan nan nan nan nan nan nan nan nan nan nan nan nan nan nan nan nan
nan nan nan nan nan nan nan nan nan nan nan nan nan nan nan nan nan nan nan nan nan nan nan nan nan nan nan nan nan nan nan nan nan nan nan nan nan nan nan nan nan nan nan
nan nan nan nan nan nan nan nan nan nan nan nan nan nan nan nan nan nan nan nan nan nan nan nan nan nan nan nan nan nan nan nan nan nan nan nan nan nan nan nan nan nan nan
nan nan nan nan nan nan nan nan nan nan nan nan nan nan nan nan nan nan nan nan nan nan nan nan nan nan nan nan nan nan nan nan nan nan nan nan nan nan nan nan nan nan nan
Wind_Direction
332 310 295 271 253 259 264 261 259 259 261 264 269 268 266 260 264 261 271 272 262 260 253 265 265 266 264 256 251 248 249 247 245 240 235 237 252 264 269 274 294 277 275
338 325 298 276 257 254 254 256 255 252 253 260 268 267 263 259 258 266 266 263 262 259 258 256 257 261 261 255 251 250 251 248 244 242 248 263 246 253 265 262 255 272 276
326 308 292 265 256 251 254 250 254 251 247 247 252 257 261 257 255 258 265 264 262 259 257 256 257 259 256 248 243 245 nan nan 246 243 214 251 254 247 260 261 270 279 278
332 322 289 268 264 259 252 257 256 254 249 244 244 251 248 255 252 250 253 259 260 257 260 258 256 257 254 247 nan 242 245 nan nan nan 253 250 258 245 254 259 266 271 274
332 333 303 269 259 261 261 259 258 255 247 243 242 243 244 249 251 249 249 255 257 259 259 259 258 257 254 nan 247 247 245 nan nan nan 249 238 244 247 248 253 265 266 262
346 343 317 268 251 252 243 251 252 247 241 239 239 239 240 245 247 253 250 249 251 253 258 260 nan nan nan nan nan nan nan nan 223 246 nan nan 241 243 249 246 247 250 257
346 350 342 269 236 242 258 254 249 250 241 234 235 234 232 237 238 242 248 250 252 254 256 258 261 262 nan nan nan nan nan nan nan nan nan nan 239 244 260 260 254 253 256
345 354 351 285 238 247 244 246 262 252 245 240 238 238 231 221 229 244 249 253 255 255 258 261 261 264 265 nan nan nan nan nan nan nan nan nan 227 241 259 260 264 258 256
342 342 359 nan 281 267 265 265 252 255 259 255 245 256 252 235 224 237 245 253 256 260 263 265 265 269 268 266 263 nan nan nan nan nan nan nan 229 nan 256 259 263 263 262
335 334 nan nan nan 335 246 278 279 248 237 235 249 258 258 251 234 237 239 245 255 260 265 269 272 272 272 270 266 262 nan nan nan nan nan nan nan nan nan 257 263 259 261
nan 337 335 327 nan 326 314 316 328 238 203 244 243 254 256 253 240 236 237 240 246 256 263 269 269 270 271 267 263 259 nan nan nan nan nan nan nan 242 nan nan 254 256 257
nan nan nan nan nan 319 320 331 333 280 267 251 256 256 253 239 238 233 235 238 244 253 257 262 265 269 270 262 259 264 253 250 248 nan nan nan nan 241 252 nan nan 251 251
nan nan nan nan nan nan 310 307 307 289 315 nan 265 246 245 231 241 237 249 245 249 254 261 267 271 266 259 257 250 249 250 250 244 243 243 234 229 232 242 255 254 256 256
nan nan nan nan nan nan nan nan nan nan nan nan 262 280 279 268 268 270 258 nan nan nan nan 262 268 nan nan nan nan nan 253 248 241 236 242 232 nan nan 236 249 250 254 254
nan nan nan nan nan nan nan nan nan nan nan nan nan 264 262 267 270 273 272 270 nan nan nan nan nan nan nan nan nan nan nan nan nan nan 239 235 229 nan 232 241 248 251 249
nan nan nan nan nan nan nan nan nan nan nan nan nan nan 259 259 259 259 nan nan nan nan nan nan nan nan nan nan nan nan nan nan nan nan nan nan 239 232 232 238 241 244 248
nan nan nan nan nan nan nan nan nan nan nan nan nan nan nan nan nan nan nan nan nan nan nan nan nan nan nan nan nan nan nan nan nan nan nan nan nan nan 237 238 242 245 244
nan nan nan nan nan nan nan nan nan nan nan nan nan nan nan nan nan nan nan nan nan nan nan nan nan nan nan nan nan nan nan nan nan nan nan nan nan nan nan nan nan nan nan
nan nan nan nan nan nan nan nan nan nan nan nan nan nan nan nan nan nan nan nan nan nan nan nan nan nan nan nan nan nan nan nan nan nan nan nan nan nan nan nan nan nan nan
nan nan nan nan nan nan nan nan nan nan nan nan nan nan nan nan nan nan nan nan nan nan nan nan nan nan nan nan nan nan nan nan nan nan nan nan nan nan nan nan nan nan nan
nan nan nan nan nan nan nan nan nan nan nan nan nan nan nan nan nan nan nan nan nan nan nan nan nan nan nan nan nan nan nan nan nan nan nan nan nan nan nan nan nan nan nan
nan nan nan nan nan nan nan nan nan nan nan nan nan nan nan nan nan nan nan nan nan nan nan nan nan nan nan nan nan nan nan nan nan nan nan nan nan nan nan nan nan nan nan
nan nan nan nan nan nan nan nan nan nan nan nan nan nan nan nan nan nan nan nan nan nan nan nan nan nan nan nan nan nan nan nan nan nan nan nan nan nan nan nan nan nan nan
nan nan nan nan nan nan nan nan nan nan nan nan nan nan nan nan nan nan nan nan nan nan nan nan nan nan nan nan nan nan nan nan nan nan nan nan nan nan nan nan nan nan nan
nan nan nan nan nan nan nan nan nan nan nan nan nan nan nan nan nan nan nan nan nan nan nan nan nan nan nan nan nan nan nan nan nan nan nan nan nan nan nan nan nan nan nan
nan nan nan nan nan nan nan nan nan nan nan nan nan nan nan nan nan nan nan nan nan nan nan nan nan nan nan nan nan nan nan nan nan nan nan nan nan nan nan nan nan nan nan